• en France
  • Liste des pays
  • À 7 jours
  • Température de l'eau
  • Carte satellitaire
  • Carte météo
  • Widgets météo
  • user-avatar
    Se connecter

    Météo par heure à Linne

    Ce jour, 15 Octobre, Lundi

    Heure Température Précipitation Vent Pression Humidité
    00:00 +14°C° 0 mm 4 m/s 754 mmHg 62%
    01:00 +13°C° 0 mm 4 m/s 754 mmHg 64%
    02:00 +13°C° 0 mm 4 m/s 754 mmHg 65%
    03:00 +13°C° 0 mm 4 m/s 754 mmHg 66%
    04:00 +13°C° 0 mm 4 m/s 754 mmHg 67%
    05:00 +13°C° 0 mm 4 m/s 754 mmHg 67%
    06:00 +13°C° 0 mm 4 m/s 754 mmHg 67%
    07:00 +12°C° 0 mm 4 m/s 754 mmHg 65%
    08:00 +14°C° 0 mm 4 m/s 754 mmHg 57%
    09:00 +16°C° 0 mm 5 m/s 754 mmHg 49%
    10:00 +19°C° 0 mm 5 m/s 754 mmHg 41%
    11:00 +20°C° 0 mm 5 m/s 754 mmHg 39%
    12:00 +22°C° 0 mm 5 m/s 754 mmHg 36%
    13:00 +23°C° 0 mm 5 m/s 754 mmHg 33%
    14:00 +22°C° 0 mm 4 m/s 753 mmHg 36%
    15:00 +21°C° 0 mm 3 m/s 753 mmHg 40%
    16:00 +20°C° 0 mm 3 m/s 753 mmHg 43%
    17:00 +19°C° 0 mm 3 m/s 753 mmHg 45%
    18:00 +18°C° 0 mm 3 m/s 753 mmHg 47%
    19:00 +17°C° 0 mm 3 m/s 753 mmHg 50%
    20:00 +16°C° 0 mm 3 m/s 753 mmHg 49%
    21:00 +16°C° 0 mm 3 m/s 753 mmHg 49%
    22:00 +14°C° 0 mm 3 m/s 753 mmHg 49%
    23:00 +14°C° 0 mm 3 m/s 753 mmHg 50%

    Demain, 16 Octobre, Mardi

    Heure Température Précipitation Vent Pression Humidité
    00:00 +13°C° 0 mm 3 m/s 753 mmHg 50%
    01:00 +13°C° 0 mm 3 m/s 753 mmHg 51%
    02:00 +13°C° 0 mm 3 m/s 753 mmHg 52%
    03:00 +13°C° 0 mm 2 m/s 753 mmHg 53%
    04:00 +13°C° 0 mm 2 m/s 753 mmHg 54%
    05:00 +13°C° 0 mm 2 m/s 753 mmHg 55%
    06:00 +13°C° 0 mm 2 m/s 753 mmHg 55%
    07:00 +13°C° 0 mm 2 m/s 753 mmHg 56%
    08:00 +14°C° 0 mm 3 m/s 754 mmHg 50%
    09:00 +17°C° 0 mm 3 m/s 754 mmHg 45%
    10:00 +19°C° 0 mm 4 m/s 754 mmHg 40%
    11:00 +20°C° 0 mm 4 m/s 754 mmHg 37%
    12:00 +21°C° 0 mm 4 m/s 754 mmHg 34%
    13:00 +22°C° 0 mm 4 m/s 754 mmHg 32%
    14:00 +21°C° 0 mm 3 m/s 753 mmHg 35%
    15:00 +20°C° 0 mm 3 m/s 753 mmHg 37%
    16:00 +20°C° 0 mm 2 m/s 753 mmHg 40%
    17:00 +19°C° 0 mm 2 m/s 753 mmHg 42%
    18:00 +17°C° 0 mm 2 m/s 753 mmHg 44%
    19:00 +16°C° 0 mm 3 m/s 754 mmHg 46%
    20:00 +16°C° 0 mm 3 m/s 754 mmHg 47%
    21:00 +14°C° 0 mm 3 m/s 754 mmHg 48%
    22:00 +14°C° 0 mm 3 m/s 754 mmHg 49%
    23:00 +15°C° 0 mm 2 m/s 754 mmHg 50%

    Après-demain, 17 Octobre, Mercredi

    Heure Température Précipitation Vent Pression Humidité
    00:00 +15°C° 0 mm 2 m/s 754 mmHg 50%
    01:00 +14°C° 0 mm 2 m/s 754 mmHg 51%
    02:00 +14°C° 0 mm 2 m/s 754 mmHg 52%
    03:00 +14°C° 0 mm 2 m/s 754 mmHg 52%
    04:00 +14°C° 0 mm 2 m/s 754 mmHg 53%
    05:00 +14°C° 0 mm 2 m/s 754 mmHg 55%
    06:00 +13°C° 0 mm 2 m/s 754 mmHg 56%
    07:00 +13°C° 0 mm 2 m/s 754 mmHg 58%
    08:00 +15°C° 0 mm 2 m/s 754 mmHg 53%
    09:00 +17°C° 0 mm 2 m/s 754 mmHg 48%
    10:00 +19°C° 0 mm 2 m/s 754 mmHg 44%
    11:00 +20°C° 0 mm 2 m/s 754 mmHg 42%
    12:00 +20°C° 0 mm 2 m/s 754 mmHg 41%
    13:00 +21°C° 0 mm 2 m/s 754 mmHg 40%
    14:00 +21°C° 0 mm 2 m/s 753 mmHg 43%
    15:00 +21°C° 0 mm 1 m/s 753 mmHg 46%
    16:00 +20°C° 0 mm 1 m/s 753 mmHg 50%
    17:00 +19°C° 0 mm 1 m/s 753 mmHg 51%
    18:00 +17°C° 0 mm 2 m/s 753 mmHg 51%
    19:00 +16°C° 0 mm 2 m/s 753 mmHg 52%
    20:00 +16°C° 0 mm 2 m/s 753 mmHg 52%
    21:00 +16°C° 0 mm 2 m/s 753 mmHg 52%
    22:00 +15°C° 0 mm 2 m/s 753 mmHg 52%
    23:00 +15°C° 0.1 mm 2 m/s 753 mmHg 55%

    18 Octobre, Jeudi

    Heure Température Précipitation Vent Pression Humidité
    00:00 +15°C° 0.1 mm 2 m/s 753 mmHg 58%
    01:00 +14°C° 0.1 mm 1 m/s 753 mmHg 61%
    02:00 +14°C° 0 mm 1 m/s 753 mmHg 63%
    03:00 +14°C° 0 mm 1 m/s 753 mmHg 65%
    04:00 +14°C° 0 mm 1 m/s 753 mmHg 67%
    05:00 +14°C° 0 mm 1 m/s 753 mmHg 67%
    06:00 +14°C° 0 mm 1 m/s 753 mmHg 68%
    07:00 +14°C° 0 mm 1 m/s 753 mmHg 68%
    08:00 +15°C° 0.1 mm 1 m/s 753 mmHg 67%
    09:00 +15°C° 0.1 mm 1 m/s 753 mmHg 66%
    10:00 +16°C° 0.1 mm 1 m/s 753 mmHg 65%
    11:00 +18°C° 0 mm 1 m/s 753 mmHg 63%
    12:00 +18°C° 0 mm 1 m/s 752 mmHg 61%
    13:00 +19°C° 0 mm 1 m/s 752 mmHg 59%
    14:00 +19°C° 0 mm 1 m/s 752 mmHg 61%
    15:00 +18°C° 0 mm 1 m/s 752 mmHg 63%
    16:00 +18°C° 0 mm 1 m/s 752 mmHg 65%
    17:00 +16°C° 0 mm 1 m/s 752 mmHg 68%
    18:00 +15°C° 0 mm 1 m/s 752 mmHg 71%
    19:00 +14°C° 0 mm 1 m/s 752 mmHg 74%
    20:00 +14°C° 0 mm 1 m/s 752 mmHg 76%
    21:00 +14°C° 0 mm 1 m/s 753 mmHg 78%
    22:00 +13°C° 0 mm 1 m/s 753 mmHg 79%
    23:00 +13°C° 0 mm 1 m/s 753 mmHg 80%

    19 Octobre, Vendredi

    Heure Température Précipitation Vent Pression Humidité
    00:00 +13°C° 0 mm 1 m/s 753 mmHg 81%
    01:00 +12°C° 0 mm 1 m/s 753 mmHg 82%
    02:00 +12°C° 0 mm 1 m/s 753 mmHg 83%
    03:00 +12°C° 0 mm 1 m/s 752 mmHg 84%
    04:00 +12°C° 0 mm 1 m/s 752 mmHg 85%
    05:00 +11°C° 0 mm 1 m/s 753 mmHg 85%
    06:00 +11°C° 0 mm 1 m/s 753 mmHg 86%
    07:00 +11°C° 0 mm 1 m/s 753 mmHg 86%
    08:00 +13°C° 0 mm 1 m/s 753 mmHg 79%
    09:00 +14°C° 0 mm 1 m/s 753 mmHg 72%
    10:00 +16°C° 0 mm 2 m/s 753 mmHg 65%
    11:00 +17°C° 0 mm 2 m/s 753 mmHg 61%
    12:00 +18°C° 0 mm 2 m/s 753 mmHg 58%
    13:00 +19°C° 0 mm 3 m/s 753 mmHg 54%
    14:00 +18°C° 0 mm 3 m/s 753 mmHg 57%
    15:00 +17°C° 0 mm 3 m/s 753 mmHg 61%
    16:00 +17°C° 0 mm 2 m/s 752 mmHg 64%
    17:00 +16°C° 0 mm 2 m/s 753 mmHg 68%
    18:00 +15°C° 0 mm 2 m/s 753 mmHg 71%
    19:00 +15°C° 0 mm 2 m/s 753 mmHg 75%
    20:00 +14°C° 0 mm 2 m/s 753 mmHg 75%
    21:00 +13°C° 0 mm 3 m/s 754 mmHg 76%
    22:00 +13°C° 0 mm 3 m/s 754 mmHg 76%
    23:00 +13°C° 0 mm 3 m/s 754 mmHg 74%

    20 Octobre, Samedi

    Heure Température Précipitation Vent Pression Humidité
    00:00 +12°C° 0 mm 3 m/s 754 mmHg 73%
    01:00 +12°C° 0 mm 3 m/s 754 mmHg 71%
    02:00 +11°C° 0 mm 3 m/s 754 mmHg 71%
    03:00 +11°C° 0 mm 4 m/s 754 mmHg 72%
    04:00 +10°C° 0 mm 4 m/s 754 mmHg 72%
    05:00 +8°C° 0 mm 4 m/s 755 mmHg 76%
    06:00 +7°C° 0 mm 4 m/s 755 mmHg 79%
    07:00 +7°C° 0 mm 4 m/s 755 mmHg 83%
    08:00 +7°C° 0 mm 4 m/s 756 mmHg 79%
    09:00 +8°C° 0 mm 4 m/s 756 mmHg 76%
    10:00 +10°C° 0 mm 4 m/s 756 mmHg 72%
    11:00 +10°C° 0 mm 5 m/s 756 mmHg 69%
    12:00 +10°C° 0 mm 5 m/s 756 mmHg 65%
    13:00 +12°C° 0 mm 5 m/s 756 mmHg 62%
    14:00 +10°C° 0 mm 5 m/s 756 mmHg 61%
    15:00 +10°C° 0 mm 5 m/s 756 mmHg 61%
    16:00 +10°C° 0 mm 5 m/s 756 mmHg 60%
    17:00 +11°C° 0 mm 4 m/s 756 mmHg 60%
    18:00 +10°C° 0 mm 4 m/s 757 mmHg 60%
    19:00 +10°C° 0 mm 4 m/s 757 mmHg 60%
    20:00 +10°C° 0 mm 3 m/s 757 mmHg 63%
    21:00 +10°C° 0 mm 3 m/s 757 mmHg 67%
    22:00 +10°C° 0 mm 3 m/s 757 mmHg 70%
    23:00 +10°C° 0 mm 3 m/s 757 mmHg 73%
    Voir plus